owner,sensor,date,latitude,longitude,vertical_datum,wind_speed,wind_to_direction,wind_speed_of_gust,qcFlag 
TCOON,ioos:station:TCOON:068:1,2007-12-01T00:00:00Z,27.2970,-97.4049,0.0,7.0,100.0,8.1,'11111222,11111222,11111222' 
TCOON,ioos:station:TCOON:068:1,2007-12-01T01:00:00Z,27.2970,-97.4049,0.0,4.9,100.0,5.6,'11111222,11111222,11111222' 
TCOON,ioos:station:TCOON:068:1,2007-12-01T03:00:00Z,27.2970,-97.4049,0.0,4.3,98.0,5.3,'11111222,11111222,11111222' 
TCOON,ioos:station:TCOON:068:1,2007-12-01T04:00:00Z,27.2970,-97.4049,0.0,4.8,111.0,5.8,'11111222,11111222,11111222' 
TCOON,ioos:station:TCOON:068:1,2007-12-01T05:00:00Z,27.2970,-97.4049,0.0,4.4,119.0,5.3,'11111222,11111222,11111222' 
TCOON,ioos:station:TCOON:068:1,2007-12-01T06:00:00Z,27.2970,-97.4049,0.0,4.6,113.0,5.4,'11111222,11111222,11111222' 
TCOON,ioos:station:TCOON:068:1,2007-12-01T07:00:00Z,27.2970,-97.4049,0.0,5.1,111.0,6.1,'11111222,11111222,11111222' 
TCOON,ioos:station:TCOON:068:1,2007-12-01T08:00:00Z,27.2970,-97.4049,0.0,6.2,120.0,7.1,'11111222,11111222,11111222' 
TCOON,ioos:station:TCOON:068:1,2007-12-01T09:00:00Z,27.2970,-97.4049,0.0,6.1,120.0,7.9,'11111222,11111222,11111222' 
TCOON,ioos:station:TCOON:068:1,2007-12-01T10:00:00Z,27.2970,-97.4049,0.0,5.3,115.0,6.3,'11111222,11111222,11111222' 
TCOON,ioos:station:TCOON:068:1,2007-12-01T11:00:00Z,27.2970,-97.4049,0.0,4.9,121.0,5.7,'11111222,11111222,11111222' 
TCOON,ioos:station:TCOON:068:1,2007-12-01T12:00:00Z,27.2970,-97.4049,0.0,5.0,120.0,6.1,'11111222,11111222,11111222' 
TCOON,ioos:station:TCOON:068:1,2007-12-01T13:00:00Z,27.2970,-97.4049,0.0,4.9,111.0,6.2,'11111222,11111222,11111222' 
TCOON,ioos:station:TCOON:068:1,2007-12-01T14:00:00Z,27.2970,-97.4049,0.0,6.5,116.0,8.0,'11111222,11111222,11111222' 
TCOON,ioos:station:TCOON:068:1,2007-12-01T15:00:00Z,27.2970,-97.4049,0.0,6.5,126.0,7.8,'11111222,11111222,11111222' 
TCOON,ioos:station:TCOON:068:1,2007-12-01T16:00:00Z,27.2970,-97.4049,0.0,8.8,135.0,11.4,'11111222,11111222,11111222' 
TCOON,ioos:station:TCOON:068:1,2007-12-01T17:00:00Z,27.2970,-97.4049,0.0,8.8,134.0,11.0,'11111222,11111222,11111222' 
TCOON,ioos:station:TCOON:068:1,2007-12-01T18:00:00Z,27.2970,-97.4049,0.0,9.2,138.0,13.0,'11111222,11111222,11111222' 
TCOON,ioos:station:TCOON:068:1,2007-12-01T19:00:00Z,27.2970,-97.4049,0.0,10.8,140.0,14.0,'11111222,11111222,11111222' 
TCOON,ioos:station:TCOON:068:1,2007-12-01T20:00:00Z,27.2970,-97.4049,0.0,10.6,137.0,13.9,'11111222,11111222,11111222' 
TCOON,ioos:station:TCOON:068:1,2007-12-01T21:00:00Z,27.2970,-97.4049,0.0,9.7,132.0,11.8,'11111222,11111222,11111222' 
TCOON,ioos:station:TCOON:068:1,2007-12-01T22:00:00Z,27.2970,-97.4049,0.0,10.3,133.0,13.6,'11111222,11111222,11111222' 
TCOON,ioos:station:TCOON:068:1,2007-12-01T23:00:00Z,27.2970,-97.4049,0.0,10.5,137.0,28.6,'11111222,11111222,11111222' 
TCOON,ioos:station:TCOON:068:1,2007-12-02T00:00:00Z,27.2970,-97.4049,0.0,8.0,133.0,10.6,'11111222,11111222,11111222' 
TCOON,ioos:station:TCOON:068:1,2007-12-02T01:00:00Z,27.2970,-97.4049,0.0,9.0,136.0,11.8,'11111222,11111222,11111222' 
TCOON,ioos:station:TCOON:068:1,2007-12-02T02:00:00Z,27.2970,-97.4049,0.0,6.9,133.0,8.4,'11111222,11111222,11111222' 
TCOON,ioos:station:TCOON:068:1,2007-12-02T03:00:00Z,27.2970,-97.4049,0.0,8.2,144.0,10.1,'11111222,11111222,11111222' 
TCOON,ioos:station:TCOON:068:1,2007-12-02T04:00:00Z,27.2970,-97.4049,0.0,6.7,145.0,8.2,'11111222,11111222,11111222' 
TCOON,ioos:station:TCOON:068:1,2007-12-02T05:00:00Z,27.2970,-97.4049,0.0,7.4,148.0,10.1,'11111222,11111222,11111222' 
TCOON,ioos:station:TCOON:068:1,2007-12-02T06:00:00Z,27.2970,-97.4049,0.0,7.0,143.0,8.4,'11111222,11111222,11111222' 
TCOON,ioos:station:TCOON:068:1,2007-12-02T07:00:00Z,27.2970,-97.4049,0.0,5.0,151.0,5.9,'11111222,11111222,11111222' 
TCOON,ioos:station:TCOON:068:1,2007-12-02T08:00:00Z,27.2970,-97.4049,0.0,6.3,151.0,7.6,'11111222,11111222,11111222' 
TCOON,ioos:station:TCOON:068:1,2007-12-02T09:00:00Z,27.2970,-97.4049,0.0,5.8,151.0,6.8,'11111222,11111222,11111222' 
TCOON,ioos:station:TCOON:068:1,2007-12-02T10:00:00Z,27.2970,-97.4049,0.0,5.8,146.0,7.0,'11111222,11111222,11111222' 
TCOON,ioos:station:TCOON:068:1,2007-12-02T11:00:00Z,27.2970,-97.4049,0.0,5.2,139.0,6.5,'11111222,11111222,11111222' 
TCOON,ioos:station:TCOON:068:1,2007-12-02T12:00:00Z,27.2970,-97.4049,0.0,7.1,129.0,8.7,'11111222,11111222,11111222' 
TCOON,ioos:station:TCOON:068:1,2007-12-02T13:00:00Z,27.2970,-97.4049,0.0,5.9,136.0,7.2,'11111222,11111222,11111222' 
TCOON,ioos:station:TCOON:068:1,2007-12-02T14:00:00Z,27.2970,-97.4049,0.0,6.8,136.0,8.6,'11111222,11111222,11111222' 
TCOON,ioos:station:TCOON:068:1,2007-12-02T15:00:00Z,27.2970,-97.4049,0.0,8.4,148.0,11.1,'11111222,11111222,11111222' 
TCOON,ioos:station:TCOON:068:1,2007-12-02T16:00:00Z,27.2970,-97.4049,0.0,7.1,146.0,9.5,'11111222,11111222,11111222' 
TCOON,ioos:station:TCOON:068:1,2007-12-02T17:00:00Z,27.2970,-97.4049,0.0,5.8,152.0,7.2,'11111222,11111222,11111222' 
TCOON,ioos:station:TCOON:068:1,2007-12-02T18:00:00Z,27.2970,-97.4049,0.0,7.3,141.0,8.2,'11111222,11111222,11111222' 
TCOON,ioos:station:TCOON:068:1,2007-12-02T19:00:00Z,27.2970,-97.4049,0.0,6.8,138.0,8.6,'11111222,11111222,11111222' 
TCOON,ioos:station:TCOON:068:1,2007-12-02T20:00:00Z,27.2970,-97.4049,0.0,7.1,134.0,8.7,'11111222,11111222,11111222' 
TCOON,ioos:station:TCOON:068:1,2007-12-02T21:00:00Z,27.2970,-97.4049,0.0,7.1,124.0,8.5,'11111222,11111222,11111222' 
TCOON,ioos:station:TCOON:068:1,2007-12-02T22:00:00Z,27.2970,-97.4049,0.0,6.2,123.0,7.2,'11111222,11111222,11111222' 
TCOON,ioos:station:TCOON:068:1,2007-12-02T23:00:00Z,27.2970,-97.4049,0.0,4.0,117.0,5.0,'11111222,11111222,11111222' 
TCOON,ioos:station:TCOON:068:1,2007-12-03T00:00:00Z,27.2970,-97.4049,0.0,1.1,51.0,1.4,'11111222,11111222,11111222' 
TCOON,ioos:station:TCOON:068:1,2007-12-03T01:00:00Z,27.2970,-97.4049,0.0,1.2,149.0,1.3,'11111222,11111222,11111222' 
TCOON,ioos:station:TCOON:068:1,2007-12-03T02:00:00Z,27.2970,-97.4049,0.0,1.1,38.0,1.2,'11111222,11111222,11111222' 
TCOON,ioos:station:TCOON:068:1,2007-12-03T03:00:00Z,27.2970,-97.4049,0.0,1.9,70.0,2.0,'11111222,11111222,11111222' 
TCOON,ioos:station:TCOON:068:1,2007-12-03T04:00:00Z,27.2970,-97.4049,0.0,1.2,22.0,1.2,'11111222,11111222,11111222' 
TCOON,ioos:station:TCOON:068:1,2007-12-03T05:00:00Z,27.2970,-97.4049,0.0,2.9,318.0,3.1,'11111222,11111222,11111222' 
TCOON,ioos:station:TCOON:068:1,2007-12-03T06:00:00Z,27.2970,-97.4049,0.0,7.3,332.0,8.5,'11111222,11111222,11111222' 
TCOON,ioos:station:TCOON:068:1,2007-12-03T07:00:00Z,27.2970,-97.4049,0.0,12.6,2.0,15.4,'11111222,11111222,11111222' 
TCOON,ioos:station:TCOON:068:1,2007-12-03T08:00:00Z,27.2970,-97.4049,0.0,11.7,356.0,14.3,'11111222,11111222,11111222' 
TCOON,ioos:station:TCOON:068:1,2007-12-03T09:00:00Z,27.2970,-97.4049,0.0,12.1,354.0,13.8,'11111222,11111222,11111222' 
TCOON,ioos:station:TCOON:068:1,2007-12-03T10:00:00Z,27.2970,-97.4049,0.0,10.1,353.0,12.1,'11111222,11111222,11111222' 
TCOON,ioos:station:TCOON:068:1,2007-12-03T11:00:00Z,27.2970,-97.4049,0.0,9.5,350.0,11.5,'11111222,11111222,11111222' 
TCOON,ioos:station:TCOON:068:1,2007-12-03T12:00:00Z,27.2970,-97.4049,0.0,9.6,346.0,11.7,'11111222,11111222,11111222' 
TCOON,ioos:station:TCOON:068:1,2007-12-03T13:00:00Z,27.2970,-97.4049,0.0,9.1,342.0,11.3,'11111222,11111222,11111222' 
TCOON,ioos:station:TCOON:068:1,2007-12-03T14:00:00Z,27.2970,-97.4049,0.0,9.3,342.0,11.8,'11111222,11111222,11111222' 
TCOON,ioos:station:TCOON:068:1,2007-12-03T15:00:00Z,27.2970,-97.4049,0.0,9.8,347.0,11.4,'11111222,11111222,11111222' 
TCOON,ioos:station:TCOON:068:1,2007-12-03T16:00:00Z,27.2970,-97.4049,0.0,8.0,355.0,10.2,'11111222,11111222,11111222' 
TCOON,ioos:station:TCOON:068:1,2007-12-03T17:00:00Z,27.2970,-97.4049,0.0,7.9,355.0,10.3,'11111222,11111222,11111222' 
TCOON,ioos:station:TCOON:068:1,2007-12-03T18:00:00Z,27.2970,-97.4049,0.0,4.2,340.0,5.4,'11111222,11111222,11111222' 
TCOON,ioos:station:TCOON:068:1,2007-12-03T19:00:00Z,27.2970,-97.4049,0.0,5.5,347.0,7.5,'11111222,11111222,11111222' 
TCOON,ioos:station:TCOON:068:1,2007-12-03T20:00:00Z,27.2970,-97.4049,0.0,5.1,326.0,6.6,'11111222,11111222,11111222' 
TCOON,ioos:station:TCOON:068:1,2007-12-03T21:00:00Z,27.2970,-97.4049,0.0,7.8,358.0,9.3,'11111222,11111222,11111222' 
TCOON,ioos:station:TCOON:068:1,2007-12-03T22:00:00Z,27.2970,-97.4049,0.0,7.2,335.0,8.5,'11111222,11111222,11111222' 
TCOON,ioos:station:TCOON:068:1,2007-12-03T23:00:00Z,27.2970,-97.4049,0.0,5.3,346.0,6.1,'11111222,11111222,11111222' 
TCOON,ioos:station:TCOON:068:1,2007-12-04T00:00:00Z,27.2970,-97.4049,0.0,4.1,345.0,4.8,'11111222,11111222,11111222' 
TCOON,ioos:station:TCOON:068:1,2007-12-04T01:00:00Z,27.2970,-97.4049,0.0,3.8,344.0,4.9,'11111222,11111222,11111222' 
TCOON,ioos:station:TCOON:068:1,2007-12-04T02:00:00Z,27.2970,-97.4049,0.0,4.7,3.0,5.8,'11111222,11111222,11111222' 
TCOON,ioos:station:TCOON:068:1,2007-12-04T03:00:00Z,27.2970,-97.4049,0.0,5.7,357.0,6.6,'11111222,11111222,11111222' 
TCOON,ioos:station:TCOON:068:1,2007-12-04T04:00:00Z,27.2970,-97.4049,0.0,4.1,4.0,5.0,'11111222,11111222,11111222' 
TCOON,ioos:station:TCOON:068:1,2007-12-04T05:00:00Z,27.2970,-97.4049,0.0,3.3,351.0,3.8,'11111222,11111222,11111222' 
TCOON,ioos:station:TCOON:068:1,2007-12-04T06:00:00Z,27.2970,-97.4049,0.0,4.8,337.0,5.7,'11111222,11111222,11111222' 
TCOON,ioos:station:TCOON:068:1,2007-12-04T07:00:00Z,27.2970,-97.4049,0.0,4.5,341.0,5.0,'11111222,11111222,11111222' 
TCOON,ioos:station:TCOON:068:1,2007-12-04T08:00:00Z,27.2970,-97.4049,0.0,3.9,345.0,5.1,'11111222,11111222,11111222' 
TCOON,ioos:station:TCOON:068:1,2007-12-04T09:00:00Z,27.2970,-97.4049,0.0,3.2,329.0,3.5,'11111222,11111222,11111222' 
TCOON,ioos:station:TCOON:068:1,2007-12-04T10:00:00Z,27.2970,-97.4049,0.0,4.7,332.0,5.4,'11111222,11111222,11111222' 
TCOON,ioos:station:TCOON:068:1,2007-12-04T11:00:00Z,27.2970,-97.4049,0.0,4.2,317.0,4.6,'11111222,11111222,11111222' 
TCOON,ioos:station:TCOON:068:1,2007-12-04T12:00:00Z,27.2970,-97.4049,0.0,4.9,309.0,5.3,'11111222,11111222,11111222' 
TCOON,ioos:station:TCOON:068:1,2007-12-04T13:00:00Z,27.2970,-97.4049,0.0,4.2,293.0,4.8,'11111222,11111222,11111222' 
TCOON,ioos:station:TCOON:068:1,2007-12-04T14:00:00Z,27.2970,-97.4049,0.0,3.7,302.0,4.0,'11111222,11111222,11111222' 
TCOON,ioos:station:TCOON:068:1,2007-12-04T15:00:00Z,27.2970,-97.4049,0.0,2.9,308.0,3.4,'11111222,11111222,11111222' 
TCOON,ioos:station:TCOON:068:1,2007-12-04T16:00:00Z,27.2970,-97.4049,0.0,0.8,325.0,1.0,'11111222,11111222,11111222' 
TCOON,ioos:station:TCOON:068:1,2007-12-04T17:00:00Z,27.2970,-97.4049,0.0,0.9,237.0,1.1,'11111222,11111222,11111222' 
TCOON,ioos:station:TCOON:068:1,2007-12-04T18:00:00Z,27.2970,-97.4049,0.0,0.8,317.0,1.1,'11111222,11111222,11111222' 
TCOON,ioos:station:TCOON:068:1,2007-12-04T19:00:00Z,27.2970,-97.4049,0.0,2.0,123.0,2.3,'11111222,11111222,11111222' 
TCOON,ioos:station:TCOON:068:1,2007-12-04T20:00:00Z,27.2970,-97.4049,0.0,1.7,97.0,2.1,'11111222,11111222,11111222' 
TCOON,ioos:station:TCOON:068:1,2007-12-04T21:00:00Z,27.2970,-97.4049,0.0,3.0,107.0,3.9,'11111222,11111222,11111222' 
TCOON,ioos:station:TCOON:068:1,2007-12-04T22:00:00Z,27.2970,-97.4049,0.0,3.8,97.0,4.4,'11111222,11111222,11111222' 
TCOON,ioos:station:TCOON:068:1,2007-12-04T23:00:00Z,27.2970,-97.4049,0.0,4.4,108.0,5.0,'11111222,11111222,11111222' 
TCOON,ioos:station:TCOON:068:1,2007-12-05T00:00:00Z,27.2970,-97.4049,0.0,3.9,105.0,4.4,'11111222,11111222,11111222' 
TCOON,ioos:station:TCOON:068:1,2007-12-05T01:00:00Z,27.2970,-97.4049,0.0,3.0,114.0,3.7,'11111222,11111222,11111222' 
TCOON,ioos:station:TCOON:068:1,2007-12-05T02:00:00Z,27.2970,-97.4049,0.0,3.9,130.0,5.4,'11111222,11111222,11111222' 
TCOON,ioos:station:TCOON:068:1,2007-12-05T03:00:00Z,27.2970,-97.4049,0.0,4.2,141.0,4.8,'11111222,11111222,11111222' 
TCOON,ioos:station:TCOON:068:1,2007-12-05T04:00:00Z,27.2970,-97.4049,0.0,3.4,144.0,4.2,'11111222,11111222,11111222' 
TCOON,ioos:station:TCOON:068:1,2007-12-05T05:00:00Z,27.2970,-97.4049,0.0,4.9,163.0,5.9,'11111222,11111222,11111222' 
TCOON,ioos:station:TCOON:068:1,2007-12-05T06:00:00Z,27.2970,-97.4049,0.0,5.8,186.0,6.5,'11111222,11111222,11111222' 
TCOON,ioos:station:TCOON:068:1,2007-12-05T07:00:00Z,27.2970,-97.4049,0.0,6.0,188.0,7.1,'11111222,11111222,11111222' 
TCOON,ioos:station:TCOON:068:1,2007-12-05T08:00:00Z,27.2970,-97.4049,0.0,5.6,185.0,6.5,'11111222,11111222,11111222' 
TCOON,ioos:station:TCOON:068:1,2007-12-05T09:00:00Z,27.2970,-97.4049,0.0,6.1,184.0,7.0,'11111222,11111222,11111222' 
TCOON,ioos:station:TCOON:068:1,2007-12-05T13:00:00Z,27.2970,-97.4049,0.0,0.9,210.0,1.1,'11111222,11111222,11111222' 
TCOON,ioos:station:TCOON:068:1,2007-12-05T14:00:00Z,27.2970,-97.4049,0.0,1.0,108.0,1.2,'11111222,11111222,11111222' 
TCOON,ioos:station:TCOON:068:1,2007-12-05T15:00:00Z,27.2970,-97.4049,0.0,1.6,136.0,2.2,'11111222,11111222,11111222' 
TCOON,ioos:station:TCOON:068:1,2007-12-05T16:00:00Z,27.2970,-97.4049,0.0,4.9,178.0,5.4,'11111222,11111222,11111222' 
TCOON,ioos:station:TCOON:068:1,2007-12-05T17:00:00Z,27.2970,-97.4049,0.0,5.7,169.0,6.6,'11111222,11111222,11111222' 
TCOON,ioos:station:TCOON:068:1,2007-12-05T18:00:00Z,27.2970,-97.4049,0.0,4.5,171.0,5.0,'11111222,11111222,11111222' 
TCOON,ioos:station:TCOON:068:1,2007-12-05T19:00:00Z,27.2970,-97.4049,0.0,3.4,147.0,3.9,'11111222,11111222,11111222' 
TCOON,ioos:station:TCOON:068:1,2007-12-05T20:00:00Z,27.2970,-97.4049,0.0,3.1,113.0,4.0,'11111222,11111222,11111222' 
TCOON,ioos:station:TCOON:068:1,2007-12-05T21:00:00Z,27.2970,-97.4049,0.0,4.3,109.0,5.3,'11111222,11111222,11111222' 
TCOON,ioos:station:TCOON:068:1,2007-12-05T22:00:00Z,27.2970,-97.4049,0.0,4.8,104.0,5.8,'11111222,11111222,11111222' 
TCOON,ioos:station:TCOON:068:1,2007-12-05T23:00:00Z,27.2970,-97.4049,0.0,4.8,102.0,5.6,'11111222,11111222,11111222' 
TCOON,ioos:station:TCOON:068:1,2007-12-06T00:00:00Z,27.2970,-97.4049,0.0,3.8,76.0,4.1,'11111222,11111222,11111222' 
TCOON,ioos:station:TCOON:068:1,2007-12-06T01:00:00Z,27.2970,-97.4049,0.0,3.6,81.0,3.9,'11111222,11111222,11111222' 
TCOON,ioos:station:TCOON:068:1,2007-12-06T02:00:00Z,27.2970,-97.4049,0.0,3.7,108.0,4.4,'11111222,11111222,11111222' 
TCOON,ioos:station:TCOON:068:1,2007-12-06T05:00:00Z,27.2970,-97.4049,0.0,3.4,112.0,4.2,'11111222,11111222,11111222' 
TCOON,ioos:station:TCOON:068:1,2007-12-06T06:00:00Z,27.2970,-97.4049,0.0,3.1,106.0,3.5,'11111222,11111222,11111222' 
TCOON,ioos:station:TCOON:068:1,2007-12-06T07:00:00Z,27.2970,-97.4049,0.0,2.9,101.0,3.0,'11111222,11111222,11111222' 
TCOON,ioos:station:TCOON:068:1,2007-12-06T08:00:00Z,27.2970,-97.4049,0.0,3.0,105.0,3.2,'11111222,11111222,11111222' 
TCOON,ioos:station:TCOON:068:1,2007-12-06T09:00:00Z,27.2970,-97.4049,0.0,3.0,63.0,3.1,'11111222,11111222,11111222' 
TCOON,ioos:station:TCOON:068:1,2007-12-06T10:00:00Z,27.2970,-97.4049,0.0,3.3,78.0,3.6,'11111222,11111222,11111222' 
TCOON,ioos:station:TCOON:068:1,2007-12-06T11:00:00Z,27.2970,-97.4049,0.0,3.1,92.0,3.3,'11111222,11111222,11111222' 
TCOON,ioos:station:TCOON:068:1,2007-12-06T12:00:00Z,27.2970,-97.4049,0.0,3.2,95.0,3.4,'11111222,11111222,11111222' 
TCOON,ioos:station:TCOON:068:1,2007-12-06T13:00:00Z,27.2970,-97.4049,0.0,3.2,70.0,3.4,'11111222,11111222,11111222' 
TCOON,ioos:station:TCOON:068:1,2007-12-06T14:00:00Z,27.2970,-97.4049,0.0,4.0,98.0,4.5,'11111222,11111222,11111222' 
TCOON,ioos:station:TCOON:068:1,2007-12-06T15:00:00Z,27.2970,-97.4049,0.0,4.8,104.0,5.9,'11111222,11111222,11111222' 
TCOON,ioos:station:TCOON:068:1,2007-12-06T16:00:00Z,27.2970,-97.4049,0.0,5.6,109.0,7.0,'11111222,11111222,11111222' 
TCOON,ioos:station:TCOON:068:1,2007-12-06T17:00:00Z,27.2970,-97.4049,0.0,5.9,113.0,7.8,'11111222,11111222,11111222' 
TCOON,ioos:station:TCOON:068:1,2007-12-06T18:00:00Z,27.2970,-97.4049,0.0,6.2,117.0,8.4,'11111222,11111222,11111222' 
TCOON,ioos:station:TCOON:068:1,2007-12-06T19:00:00Z,27.2970,-97.4049,0.0,6.9,118.0,8.4,'11111222,11111222,11111222' 
TCOON,ioos:station:TCOON:068:1,2007-12-06T20:00:00Z,27.2970,-97.4049,0.0,7.2,125.0,9.4,'11111222,11111222,11111222' 
TCOON,ioos:station:TCOON:068:1,2007-12-06T21:00:00Z,27.2970,-97.4049,0.0,7.5,121.0,9.0,'11111222,11111222,11111222' 
TCOON,ioos:station:TCOON:068:1,2007-12-06T22:00:00Z,27.2970,-97.4049,0.0,7.5,122.0,9.9,'11111222,11111222,11111222' 
TCOON,ioos:station:TCOON:068:1,2007-12-06T23:00:00Z,27.2970,-97.4049,0.0,7.6,120.0,9.6,'11111222,11111222,11111222' 
TCOON,ioos:station:TCOON:068:1,2007-12-07T00:00:00Z,27.2970,-97.4049,0.0,6.7,123.0,8.3,'11111222,11111222,11111222' 
TCOON,ioos:station:TCOON:068:1,2007-12-07T01:00:00Z,27.2970,-97.4049,0.0,7.0,129.0,9.1,'11111222,11111222,11111222' 
TCOON,ioos:station:TCOON:068:1,2007-12-07T05:00:00Z,27.2970,-97.4049,0.0,5.9,145.0,7.1,'11111222,11111222,11111222' 
TCOON,ioos:station:TCOON:068:1,2007-12-07T06:00:00Z,27.2970,-97.4049,0.0,6.9,145.0,8.0,'11111222,11111222,11111222' 
TCOON,ioos:station:TCOON:068:1,2007-12-07T08:00:00Z,27.2970,-97.4049,0.0,6.9,143.0,8.6,'11111222,11111222,11111222' 
TCOON,ioos:station:TCOON:068:1,2007-12-07T09:00:00Z,27.2970,-97.4049,0.0,6.7,142.0,8.1,'11111222,11111222,11111222' 
TCOON,ioos:station:TCOON:068:1,2007-12-07T10:00:00Z,27.2970,-97.4049,0.0,6.2,145.0,7.6,'11111222,11111222,11111222' 
TCOON,ioos:station:TCOON:068:1,2007-12-07T11:00:00Z,27.2970,-97.4049,0.0,6.7,144.0,8.0,'11111222,11111222,11111222' 
TCOON,ioos:station:TCOON:068:1,2007-12-07T12:00:00Z,27.2970,-97.4049,0.0,4.9,147.0,6.1,'11111222,11111222,11111222' 
TCOON,ioos:station:TCOON:068:1,2007-12-07T13:00:00Z,27.2970,-97.4049,0.0,3.1,166.0,3.7,'11111222,11111222,11111222' 
TCOON,ioos:station:TCOON:068:1,2007-12-07T14:00:00Z,27.2970,-97.4049,0.0,4.1,170.0,4.6,'11111222,11111222,11111222' 
TCOON,ioos:station:TCOON:068:1,2007-12-07T15:00:00Z,27.2970,-97.4049,0.0,4.0,157.0,5.1,'11111222,11111222,11111222' 
TCOON,ioos:station:TCOON:068:1,2007-12-07T16:00:00Z,27.2970,-97.4049,0.0,5.0,141.0,6.1,'11111222,11111222,11111222' 
TCOON,ioos:station:TCOON:068:1,2007-12-08T04:00:00Z,27.2970,-97.4049,0.0,6.9,133.0,10.1,'11111222,11111222,11111222' 
TCOON,ioos:station:TCOON:068:1,2007-12-08T05:00:00Z,27.2970,-97.4049,0.0,6.9,137.0,9.5,'11111222,11111222,11111222' 
TCOON,ioos:station:TCOON:068:1,2007-12-08T06:00:00Z,27.2970,-97.4049,0.0,8.2,142.0,10.1,'11111222,11111222,11111222' 
TCOON,ioos:station:TCOON:068:1,2007-12-08T07:00:00Z,27.2970,-97.4049,0.0,7.8,146.0,9.3,'11111222,11111222,11111222' 
TCOON,ioos:station:TCOON:068:1,2007-12-08T08:00:00Z,27.2970,-97.4049,0.0,6.7,145.0,8.8,'11111222,11111222,11111222' 
TCOON,ioos:station:TCOON:068:1,2007-12-08T09:00:00Z,27.2970,-97.4049,0.0,6.9,147.0,8.5,'11111222,11111222,11111222' 
TCOON,ioos:station:TCOON:068:1,2007-12-08T10:00:00Z,27.2970,-97.4049,0.0,6.2,144.0,7.6,'11111222,11111222,11111222' 
TCOON,ioos:station:TCOON:068:1,2007-12-08T11:00:00Z,27.2970,-97.4049,0.0,3.9,137.0,9.1,'11111222,11111222,11111222' 
TCOON,ioos:station:TCOON:068:1,2007-12-08T12:00:00Z,27.2970,-97.4049,0.0,4.5,129.0,5.7,'11111222,11111222,11111222' 
TCOON,ioos:station:TCOON:068:1,2007-12-08T13:00:00Z,27.2970,-97.4049,0.0,5.1,136.0,6.5,'11111222,11111222,11111222' 
TCOON,ioos:station:TCOON:068:1,2007-12-08T14:00:00Z,27.2970,-97.4049,0.0,5.8,132.0,7.1,'11111222,11111222,11111222' 
TCOON,ioos:station:TCOON:068:1,2007-12-08T15:00:00Z,27.2970,-97.4049,0.0,6.1,123.0,7.8,'11111222,11111222,11111222' 
TCOON,ioos:station:TCOON:068:1,2007-12-08T16:00:00Z,27.2970,-97.4049,0.0,7.0,119.0,8.7,'11111222,11111222,11111222' 
TCOON,ioos:station:TCOON:068:1,2007-12-08T17:00:00Z,27.2970,-97.4049,0.0,8.1,117.0,9.7,'11111222,11111222,11111222' 
TCOON,ioos:station:TCOON:068:1,2007-12-08T18:00:00Z,27.2970,-97.4049,0.0,8.0,119.0,10.1,'11111222,11111222,11111222' 
TCOON,ioos:station:TCOON:068:1,2007-12-08T19:00:00Z,27.2970,-97.4049,0.0,8.3,119.0,10.9,'11111222,11111222,11111222' 
TCOON,ioos:station:TCOON:068:1,2007-12-08T20:00:00Z,27.2970,-97.4049,0.0,9.1,112.0,11.6,'11111222,11111222,11111222' 
TCOON,ioos:station:TCOON:068:1,2007-12-08T21:00:00Z,27.2970,-97.4049,0.0,9.0,109.0,11.2,'11111222,11111222,11111222' 
TCOON,ioos:station:TCOON:068:1,2007-12-08T22:00:00Z,27.2970,-97.4049,0.0,9.0,111.0,11.8,'11111222,11111222,11111222' 
TCOON,ioos:station:TCOON:068:1,2007-12-08T23:00:00Z,27.2970,-97.4049,0.0,8.4,108.0,10.1,'11111222,11111222,11111222' 
TCOON,ioos:station:TCOON:068:1,2007-12-09T00:00:00Z,27.2970,-97.4049,0.0,7.7,108.0,10.2,'11111222,11111222,11111222' 
TCOON,ioos:station:TCOON:068:1,2007-12-09T01:00:00Z,27.2970,-97.4049,0.0,7.6,116.0,9.6,'11111222,11111222,11111222' 
TCOON,ioos:station:TCOON:068:1,2007-12-09T02:00:00Z,27.2970,-97.4049,0.0,6.9,115.0,8.5,'11111222,11111222,11111222' 
TCOON,ioos:station:TCOON:068:1,2007-12-09T03:00:00Z,27.2970,-97.4049,0.0,7.2,126.0,9.0,'11111222,11111222,11111222' 
TCOON,ioos:station:TCOON:068:1,2007-12-09T04:00:00Z,27.2970,-97.4049,0.0,6.0,124.0,6.9,'11111222,11111222,11111222' 
TCOON,ioos:station:TCOON:068:1,2007-12-09T05:00:00Z,27.2970,-97.4049,0.0,5.5,127.0,7.1,'11111222,11111222,11111222' 
TCOON,ioos:station:TCOON:068:1,2007-12-09T06:00:00Z,27.2970,-97.4049,0.0,6.8,123.0,8.0,'11111222,11111222,11111222' 
TCOON,ioos:station:TCOON:068:1,2007-12-09T07:00:00Z,27.2970,-97.4049,0.0,6.6,131.0,8.3,'11111222,11111222,11111222' 
TCOON,ioos:station:TCOON:068:1,2007-12-09T08:00:00Z,27.2970,-97.4049,0.0,7.7,122.0,9.5,'11111222,11111222,11111222' 
TCOON,ioos:station:TCOON:068:1,2007-12-09T09:00:00Z,27.2970,-97.4049,0.0,7.0,120.0,8.6,'11111222,11111222,11111222' 
TCOON,ioos:station:TCOON:068:1,2007-12-09T10:00:00Z,27.2970,-97.4049,0.0,6.1,118.0,7.5,'11111222,11111222,11111222' 
TCOON,ioos:station:TCOON:068:1,2007-12-09T11:00:00Z,27.2970,-97.4049,0.0,6.8,120.0,8.1,'11111222,11111222,11111222' 
TCOON,ioos:station:TCOON:068:1,2007-12-09T12:00:00Z,27.2970,-97.4049,0.0,6.9,116.0,8.4,'11111222,11111222,11111222' 
TCOON,ioos:station:TCOON:068:1,2007-12-09T13:00:00Z,27.2970,-97.4049,0.0,6.7,115.0,8.6,'11111222,11111222,11111222' 
TCOON,ioos:station:TCOON:068:1,2007-12-09T14:00:00Z,27.2970,-97.4049,0.0,6.7,107.0,8.2,'11111222,11111222,11111222' 
TCOON,ioos:station:TCOON:068:1,2007-12-09T15:00:00Z,27.2970,-97.4049,0.0,6.2,111.0,8.1,'11111222,11111222,11111222' 
TCOON,ioos:station:TCOON:068:1,2007-12-09T16:00:00Z,27.2970,-97.4049,0.0,7.7,110.0,9.9,'11111222,11111222,11111222' 
TCOON,ioos:station:TCOON:068:1,2007-12-09T17:00:00Z,27.2970,-97.4049,0.0,8.4,111.0,66.7,'11111222,11111222,11111222' 
TCOON,ioos:station:TCOON:068:1,2007-12-09T18:00:00Z,27.2970,-97.4049,0.0,8.8,110.0,17.4,'11111222,11111222,11111222' 
TCOON,ioos:station:TCOON:068:1,2007-12-09T19:00:00Z,27.2970,-97.4049,0.0,8.3,110.0,10.3,'11111222,11111222,11111222' 
TCOON,ioos:station:TCOON:068:1,2007-12-09T20:00:00Z,27.2970,-97.4049,0.0,9.0,108.0,11.6,'11111222,11111222,11111222' 
TCOON,ioos:station:TCOON:068:1,2007-12-09T21:00:00Z,27.2970,-97.4049,0.0,8.9,106.0,10.1,'11111222,11111222,11111222' 
TCOON,ioos:station:TCOON:068:1,2007-12-09T22:00:00Z,27.2970,-97.4049,0.0,8.8,102.0,10.6,'11111222,11111222,11111222' 
TCOON,ioos:station:TCOON:068:1,2007-12-09T23:00:00Z,27.2970,-97.4049,0.0,8.4,95.0,10.1,'11111222,11111222,11111222' 
TCOON,ioos:station:TCOON:068:1,2007-12-10T00:00:00Z,27.2970,-97.4049,0.0,7.5,97.0,9.0,'11111222,11111222,11111222' 
TCOON,ioos:station:TCOON:068:1,2007-12-10T01:00:00Z,27.2970,-97.4049,0.0,7.6,97.0,9.0,'11111222,11111222,11111222' 
TCOON,ioos:station:TCOON:068:1,2007-12-10T02:00:00Z,27.2970,-97.4049,0.0,6.9,98.0,8.3,'11111222,11111222,11111222' 
TCOON,ioos:station:TCOON:068:1,2007-12-10T03:00:00Z,27.2970,-97.4049,0.0,5.8,96.0,6.9,'11111222,11111222,11111222' 
TCOON,ioos:station:TCOON:068:1,2007-12-10T04:00:00Z,27.2970,-97.4049,0.0,6.1,100.0,7.1,'11111222,11111222,11111222' 
TCOON,ioos:station:TCOON:068:1,2007-12-10T05:00:00Z,27.2970,-97.4049,0.0,4.7,93.0,5.7,'11111222,11111222,11111222' 
TCOON,ioos:station:TCOON:068:1,2007-12-10T06:00:00Z,27.2970,-97.4049,0.0,5.6,104.0,7.0,'11111222,11111222,11111222' 
TCOON,ioos:station:TCOON:068:1,2007-12-10T07:00:00Z,27.2970,-97.4049,0.0,5.8,98.0,7.1,'11111222,11111222,11111222' 
TCOON,ioos:station:TCOON:068:1,2007-12-10T08:00:00Z,27.2970,-97.4049,0.0,5.4,97.0,7.2,'11111222,11111222,11111222' 